Regional Weather Roundup
Issued by NWS Boston, MA

Home | Current Version | Previous Version | Text Only | Print | Product List | Glossary On
Versions: 1 2 3 4 5 6 7 8 9 10 11 12 13 14 15 16 17 18 19 20 21 22 23 24 25 26 27 28 29 30 31 32 33 34 35 36 37 38 39 40 41 42 43 44 45 46 47 48 49 50
000
ASUS41 KBOX 260110
RWRBOX

REGIONAL WEATHER ROUNDUP
NATIONAL WEATHER SERVICE TAUNTON MA
900 PM EDT THU AUG 25 2016

NOTE:  "FAIR" INDICATES FEW OR NO CLOUDS BELOW 12,000 FEET WITH NO
SIGNIFICANT WEATHER AND/OR OBSTRUCTIONS TO VISIBILITY.

MAZALL-260200-
EASTERN MASSACHUSETTS

CITY           SKY/WX    TMP DP  RH WIND       PRES   REMARKS
BOSTON         PTCLDY    78  65  63 SW12      29.99R
BEVERLY        PTCLDY    79  67  66 SW10      29.98R
LAWRENCE       CLOUDY    80  66  62 SW13      30.00R
BEDFORD        CLOUDY    77  64  64 SW9       29.98R
BLUE HILL        N/A     73  63  70 SW17G24   30.02R
NORWOOD        PTCLDY    76  64  66 SW9       30.00R
MARSHFIELD     PTCLDY    75  64  69 SW8G15    30.01R
PLYMOUTH       CLOUDY    73  65  75 SW12      30.03S
TAUNTON        PTCLDY    74  63  68 SW5       30.02R
NEW BEDFORD    PTCLDY    73  66  78 SW6       30.03S
$$

MAZALL-260200-
CAPE COD AND THE ISLANDS

CITY           SKY/WX    TMP DP  RH WIND       PRES   REMARKS
FALMOUTH         N/A     73  68  83 SW12        N/A
HYANNIS        PTCLDY    74  68  81 SW13      30.03S
CHATHAM        PTCLDY    72  69  90 SW9G17    30.06R
PROVINCETOWN   CLEAR     71  67  87 SW14      30.03S
NANTUCKET      PTCLDY    70  68  93 S9        30.06S
MARTHAS VNYRD  CLEAR     72  69  90 SW9       30.05S
$$

MAZALL-260200-
CENTRAL AND WESTERN MASSACHUSETTS

CITY           SKY/WX    TMP DP  RH WIND       PRES   REMARKS
WORCESTER      MOCLDY    73  63  70 SW14      30.03S
FITCHBURG      CLOUDY    78  65  63 SW5       30.00S
ORANGE         CLOUDY    76  65  68 S7        30.00R
SPRINGFIELD    MOCLDY    77  65  65 S12       29.99R
WESTFIELD      CLOUDY    77  66  68 S9        30.00R
NORTH ADAMS    CLOUDY    74  67  78 N6        30.00R
PITTSFIELD     MOCLDY    73  65  75 SW6       30.02R
$$

RIZALL-260200-
RHODE ISLAND

CITY           SKY/WX    TMP DP  RH WIND       PRES   REMARKS
PROVIDENCE     MOCLDY    74  64  71 S8        30.03R
NEWPORT        PTCLDY    72  67  84 S6        30.04R
BLOCK ISLAND   CLOUDY    73  67  81 SW10      30.05S
SMITHFIELD     PTCLDY    72  65  78 VRB5      30.04R
WESTERLY       CLOUDY    75  65  70 SW7       30.05R
$$

CTZALL-260200-
CONNECTICUT

CITY           SKY/WX    TMP DP  RH WIND       PRES   REMARKS
BRADLEY INTL   PTCLDY    77  64  64 S8        30.01R
HARTFORD       MOCLDY    79  66  64 S8        30.00S
BRIDGEPORT     CLOUDY    79  69  71 SW9       30.01S
DANBURY        CLOUDY    74  67  78 S3        30.04R
GROTON         CLOUDY    75  68  78 S7        30.03S
NEW HAVEN      MOCLDY    77  68  73 S5        30.02S
CHESTER        MOCLDY    75  68  78 VRB6      30.04S
MERIDEN        MOCLDY    78  66  66 S6        30.01S
WILLIMANTIC    CLOUDY    76  67  73 S6        30.03S
OXFORD         MOCLDY    73  63  68 SW5       30.06S
$$

MEZ002-015-021-024-NHZ003-005-008-011-012-014-VTZ005-008-260200-
NORTHERN NEW ENGLAND

CITY           SKY/WX    TMP DP  RH WIND       PRES   REMARKS
PORTLAND ME    PTCLDY    74  64  71 SW5       29.95R
BANGOR ME      CLOUDY    71  63  75 S8        29.92S
CONCORD NH     CLOUDY    74  70  87 CALM      29.98R
MANCHESTER NH  CLOUDY    80  65  59 S9        29.96R
NASHUA NH      CLOUDY    78  67  68 VRB7      29.98S
PORTSMOUTH NH  CLOUDY    79  66  65 S6        29.95R
JAFFREY NH     MOCLDY    75  64  68 S6        30.02S
KEENE NH       CLOUDY    74  69  85 S5        29.99R
BURLINGTON VT  PTCLDY    75  67  76 S12       29.92S
MT. WASHINGTON FOG       55  55 100 W39         N/A  VSB 0
$$

NYZ052-076-260200-
EASTERN NEW YORK

CITY           SKY/WX    TMP DP  RH WIND       PRES   REMARKS
ALBANY         MOCLDY    76  71  85 S7        29.97R
NEW YORK CITY  LGT RAIN  83  72  69 VRB6      30.00R
$$

ANZALL-260200-
MARINE OBSERVATIONS

STATION/POSITION TIME  TEMP    WIND        PRES    VSBY  WAVE
                       AIR SEA DIR/SP/G                  HT/PER
                 (UTC) (F)     (DEG/KT/KT) (MB)    (MI)  (FT/S)
BOSTON BUOY      0050   72 68  190/ 12/ 14 1015.5R         1/ 9
BUZZARDS BAY     0100   73     220/ 13/ 14 1017.8R
NANTUCKET SOUND  0050   73 75  210/ 16/ 17 1017.2R         1/ 3
MASS BAY-STELLWA 0004   71 66  200/ 12/ 14 1014.8R  1 7/8  3/ 5
ISLE OF SHOALS   0100   73     200/ 23/ 24 1014.4R
S OF BLOCK IS    0025      75                N/A           3/ 5
$$

......................KEY.........................
  SKY/WX - SKY CONDITION/PRESENT WEATHER
  TMP    - TEMPERATURE IN FAHRENHEIT
  DWPT   - DEWPOINT IN FAHRENHEIT
  RH     - RELATIVE HUMIDITY IN PERCENT
  WIND   - DIRECTION AND SPEED IN MPH
  PRES   - MEAN SEA LEVEL PRESSURE IN INCHES OF HG
  WCI    - WIND CHILL INDEX
  VSB    - VISIBILITY IN MILES
  HX     - HEAT INDEX
  TC     - TEMPERATURE IN CELSIUS
  VRB    - VARIABLE WIND DIRECTION
  N/A    - NOT AVAILABLE



USA.gov is the U.S. government's official web portal to all federal, state and local government web resources and services.